Year,Month,Day,Hour,Minute,Value (Times are PST for temperature in C)
2009,02,15,00,00,4.00
2009,02,15,00,01,4.00
2009,02,15,00,02,4.00
2009,02,15,00,03,4.00
2009,02,15,00,04,4.00
2009,02,15,00,05,4.00
2009,02,15,00,06,4.00
2009,02,15,00,07,3.90
2009,02,15,00,08,3.90
2009,02,15,00,09,3.90
2009,02,15,00,10,3.90
2009,02,15,00,11,3.90
2009,02,15,00,12,3.90
2009,02,15,00,13,3.80
2009,02,15,00,14,3.80
2009,02,15,00,15,3.80
2009,02,15,00,16,3.80
2009,02,15,00,17,3.80
2009,02,15,00,18,3.80
2009,02,15,00,19,3.70
2009,02,15,00,20,3.70
2009,02,15,00,21,3.70
2009,02,15,00,22,3.70
2009,02,15,00,23,3.60
2009,02,15,00,24,3.60
2009,02,15,00,25,3.60
2009,02,15,00,26,3.50
2009,02,15,00,27,3.50
2009,02,15,00,28,3.50
2009,02,15,00,29,3.50
2009,02,15,00,30,3.40
2009,02,15,00,31,3.40
2009,02,15,00,32,3.40
2009,02,15,00,33,3.30
2009,02,15,00,34,3.30
2009,02,15,00,35,3.30
2009,02,15,00,36,3.30
2009,02,15,00,37,3.30
2009,02,15,00,38,3.30
2009,02,15,00,39,3.30
2009,02,15,00,40,3.30
2009,02,15,00,41,3.20
2009,02,15,00,42,3.20
2009,02,15,00,43,3.20
2009,02,15,00,44,3.20
2009,02,15,00,45,3.20
2009,02,15,00,46,3.20
2009,02,15,00,47,3.20
2009,02,15,00,48,3.20
2009,02,15,00,49,3.20
2009,02,15,00,50,3.20
2009,02,15,00,51,3.20
2009,02,15,00,52,3.20
2009,02,15,00,53,3.20
2009,02,15,00,54,3.20
2009,02,15,00,55,3.20
2009,02,15,00,56,3.20
2009,02,15,00,57,3.20
2009,02,15,00,58,3.20
2009,02,15,00,59,3.20
2009,02,15,01,00,3.10
2009,02,15,01,01,3.10
2009,02,15,01,02,3.10
2009,02,15,01,03,3.10
2009,02,15,01,04,3.10
2009,02,15,01,05,3.10
2009,02,15,01,06,3.10
2009,02,15,01,07,3.10
2009,02,15,01,08,3.10
2009,02,15,01,09,3.10
2009,02,15,01,10,3.10
2009,02,15,01,11,3.10
2009,02,15,01,12,3.10
2009,02,15,01,13,3.10
2009,02,15,01,14,3.10
2009,02,15,01,15,3.10
2009,02,15,01,16,3.10
2009,02,15,01,17,3.10
2009,02,15,01,18,3.10
2009,02,15,01,19,3.10
2009,02,15,01,20,3.10
2009,02,15,01,21,3.10
2009,02,15,01,22,3.10
2009,02,15,01,23,3.10
2009,02,15,01,24,3.10
2009,02,15,01,25,3.10
2009,02,15,01,26,3.00
2009,02,15,01,27,3.00
2009,02,15,01,28,2.90
2009,02,15,01,29,2.90
2009,02,15,01,30,2.90
2009,02,15,01,31,2.90
2009,02,15,01,32,2.80
2009,02,15,01,33,2.80
2009,02,15,01,34,2.80
2009,02,15,01,35,2.80
2009,02,15,01,36,2.80
2009,02,15,01,37,2.80
2009,02,15,01,38,2.80
2009,02,15,01,39,2.80
2009,02,15,01,40,2.80
2009,02,15,01,41,2.80
2009,02,15,01,42,2.80
2009,02,15,01,43,2.90
2009,02,15,01,44,2.80
2009,02,15,01,45,2.80
2009,02,15,01,46,2.80
2009,02,15,01,47,2.80
2009,02,15,01,48,2.80
2009,02,15,01,49,2.80
2009,02,15,01,50,2.80
2009,02,15,01,51,2.80
2009,02,15,01,52,2.80
2009,02,15,01,53,2.80
2009,02,15,01,54,2.80
2009,02,15,01,55,2.80
2009,02,15,01,56,2.80
2009,02,15,01,57,2.80
2009,02,15,01,58,2.80
2009,02,15,01,59,2.80
2009,02,15,02,00,2.80
2009,02,15,02,01,2.80
2009,02,15,02,02,2.80
2009,02,15,02,03,2.80
2009,02,15,02,04,2.70
2009,02,15,02,05,2.70
2009,02,15,02,06,2.70
2009,02,15,02,07,2.70
2009,02,15,02,08,2.70
2009,02,15,02,09,2.60
2009,02,15,02,10,2.60
2009,02,15,02,11,2.60
2009,02,15,02,12,2.60
2009,02,15,02,13,2.60
2009,02,15,02,14,2.60
2009,02,15,02,15,2.60
2009,02,15,02,16,2.60
2009,02,15,02,17,2.50
2009,02,15,02,18,2.50
2009,02,15,02,19,2.50
2009,02,15,02,20,2.50
2009,02,15,02,21,2.50
2009,02,15,02,22,2.50
2009,02,15,02,23,2.50
2009,02,15,02,24,2.50
2009,02,15,02,25,2.50
2009,02,15,02,26,2.50
2009,02,15,02,27,2.50
2009,02,15,02,28,2.40
2009,02,15,02,29,2.40
2009,02,15,02,30,2.40
2009,02,15,02,31,2.40
2009,02,15,02,32,2.40
2009,02,15,02,33,2.30
2009,02,15,02,34,2.30
2009,02,15,02,35,2.30
2009,02,15,02,36,2.30
2009,02,15,02,37,2.30
2009,02,15,02,38,2.30
2009,02,15,02,39,2.30
2009,02,15,02,40,2.30
2009,02,15,02,41,2.30
2009,02,15,02,42,2.30
2009,02,15,02,43,2.30
2009,02,15,02,44,2.30
2009,02,15,02,45,2.30
2009,02,15,02,46,2.30
2009,02,15,02,47,2.20
2009,02,15,02,48,2.20
2009,02,15,02,49,2.20
2009,02,15,02,50,2.20
2009,02,15,02,51,2.20
2009,02,15,02,52,2.20
2009,02,15,02,53,2.20
2009,02,15,02,54,2.20
2009,02,15,02,55,2.20
2009,02,15,02,56,2.20
2009,02,15,02,57,2.20
2009,02,15,02,58,2.10
2009,02,15,02,59,2.10
2009,02,15,03,00,2.10
2009,02,15,03,01,2.10
2009,02,15,03,02,2.10
2009,02,15,03,03,2.10
2009,02,15,03,04,2.10
2009,02,15,03,05,2.10
2009,02,15,03,06,2.10
2009,02,15,03,07,2.10
2009,02,15,03,08,2.10
2009,02,15,03,09,2.10
2009,02,15,03,10,2.10
2009,02,15,03,11,2.10
2009,02,15,03,12,2.10
2009,02,15,03,13,2.10
2009,02,15,03,14,2.10
2009,02,15,03,15,2.10
2009,02,15,03,16,2.10
2009,02,15,03,17,2.20
2009,02,15,03,18,2.20
2009,02,15,03,19,2.20
2009,02,15,03,20,2.20
2009,02,15,03,21,2.20
2009,02,15,03,22,2.20
2009,02,15,03,23,2.20
2009,02,15,03,24,2.20
2009,02,15,03,25,2.20
2009,02,15,03,26,2.20
2009,02,15,03,27,2.20
2009,02,15,03,28,2.20
2009,02,15,03,29,2.20
2009,02,15,03,30,2.20
2009,02,15,03,31,2.20
2009,02,15,03,32,2.20
2009,02,15,03,33,2.20
2009,02,15,03,34,2.20
2009,02,15,03,35,2.20
2009,02,15,03,36,2.20
2009,02,15,03,37,2.20
2009,02,15,03,38,2.20
2009,02,15,03,39,2.20
2009,02,15,03,40,2.20
2009,02,15,03,41,2.20
2009,02,15,03,42,2.20
2009,02,15,03,43,2.20
2009,02,15,03,44,2.20
2009,02,15,03,45,2.20
2009,02,15,03,46,2.20
2009,02,15,03,47,2.20
2009,02,15,03,48,2.20
2009,02,15,03,49,2.20
2009,02,15,03,50,2.20
2009,02,15,03,51,2.30
2009,02,15,03,52,2.30
2009,02,15,03,53,2.30
2009,02,15,03,54,2.30
2009,02,15,03,55,2.30
2009,02,15,03,56,2.30
2009,02,15,03,57,2.30
2009,02,15,03,58,2.30
2009,02,15,03,59,2.30
2009,02,15,04,00,2.30
2009,02,15,04,01,2.20
2009,02,15,04,02,2.20
2009,02,15,04,03,2.20
2009,02,15,04,04,2.20
2009,02,15,04,05,2.20
2009,02,15,04,06,2.10
2009,02,15,04,07,2.10
2009,02,15,04,08,2.10
2009,02,15,04,09,2.10
2009,02,15,04,10,2.00
2009,02,15,04,11,2.00
2009,02,15,04,12,2.00
2009,02,15,04,13,1.90
2009,02,15,04,14,1.90
2009,02,15,04,15,1.90
2009,02,15,04,16,1.90
2009,02,15,04,17,1.90
2009,02,15,04,18,1.90
2009,02,15,04,19,2.00
2009,02,15,04,20,2.00
2009,02,15,04,21,2.10
2009,02,15,04,22,2.10
2009,02,15,04,23,2.10
2009,02,15,04,24,2.10
2009,02,15,04,25,2.10
2009,02,15,04,26,2.10
2009,02,15,04,27,2.10
2009,02,15,04,28,2.10
2009,02,15,04,29,2.10
2009,02,15,04,30,2.10
2009,02,15,04,31,2.10
2009,02,15,04,32,2.10
2009,02,15,04,33,2.00
2009,02,15,04,34,2.00
2009,02,15,04,35,2.00
2009,02,15,04,36,2.00
2009,02,15,04,37,2.00
2009,02,15,04,38,2.00
2009,02,15,04,39,2.00
2009,02,15,04,40,2.00
2009,02,15,04,41,2.00
2009,02,15,04,42,2.00
2009,02,15,04,43,2.00
2009,02,15,04,44,2.00
2009,02,15,04,45,2.00
2009,02,15,04,46,2.00
2009,02,15,04,47,2.00
2009,02,15,04,48,2.00
2009,02,15,04,49,2.00
2009,02,15,04,50,2.00
2009,02,15,04,51,2.00
2009,02,15,04,52,2.00
2009,02,15,04,53,2.00
2009,02,15,04,54,2.00
2009,02,15,04,55,2.10
2009,02,15,04,56,2.10
2009,02,15,04,57,2.10
2009,02,15,04,58,2.10
2009,02,15,04,59,2.20
2009,02,15,05,00,2.20
2009,02,15,05,01,2.20
2009,02,15,05,02,2.20
2009,02,15,05,03,2.30
2009,02,15,05,04,2.30
2009,02,15,05,05,2.30
2009,02,15,05,06,2.30
2009,02,15,05,07,2.30
2009,02,15,05,08,2.30
2009,02,15,05,09,2.30
2009,02,15,05,10,2.40
2009,02,15,05,11,2.40
2009,02,15,05,12,2.40
2009,02,15,05,13,2.40
2009,02,15,05,14,2.40
2009,02,15,05,15,2.40
2009,02,15,05,16,2.40
2009,02,15,05,17,2.40
2009,02,15,05,18,2.40
2009,02,15,05,19,2.40
2009,02,15,05,20,2.40
2009,02,15,05,21,2.40
2009,02,15,05,22,2.30
2009,02,15,05,23,2.30
2009,02,15,05,24,2.30
2009,02,15,05,25,2.30
2009,02,15,05,26,2.30
2009,02,15,05,27,2.30
2009,02,15,05,28,2.20
2009,02,15,05,29,2.20
2009,02,15,05,30,2.20
2009,02,15,05,31,2.20
2009,02,15,05,32,2.20
2009,02,15,05,33,2.20
2009,02,15,05,34,2.20
2009,02,15,05,35,2.30
2009,02,15,05,36,2.30
2009,02,15,05,37,2.30
2009,02,15,05,38,2.30
2009,02,15,05,39,2.30
2009,02,15,05,40,2.20
2009,02,15,05,41,2.20
2009,02,15,05,42,2.20
2009,02,15,05,43,2.20
2009,02,15,05,44,2.20
2009,02,15,05,45,2.20
2009,02,15,05,46,2.30
2009,02,15,05,47,2.30
2009,02,15,05,48,2.30
2009,02,15,05,49,2.30
2009,02,15,05,50,2.30
2009,02,15,05,51,2.30
2009,02,15,05,52,2.30
2009,02,15,05,53,2.30
2009,02,15,05,54,2.30
2009,02,15,05,55,2.30
2009,02,15,05,56,2.30
2009,02,15,05,57,2.30
2009,02,15,05,58,2.30
2009,02,15,05,59,2.20
2009,02,15,06,00,2.20
2009,02,15,06,01,2.20
2009,02,15,06,02,2.20
2009,02,15,06,03,2.20
2009,02,15,06,04,2.20
2009,02,15,06,05,2.20
2009,02,15,06,06,2.20
2009,02,15,06,07,2.20
2009,02,15,06,08,2.20
2009,02,15,06,09,2.20
2009,02,15,06,10,2.20
2009,02,15,06,11,2.20
2009,02,15,06,12,2.20
2009,02,15,06,13,2.20
2009,02,15,06,14,2.20
2009,02,15,06,15,2.20
2009,02,15,06,16,2.20
2009,02,15,06,17,2.30
2009,02,15,06,18,2.30
2009,02,15,06,19,2.30
2009,02,15,06,20,2.30
2009,02,15,06,21,2.30
2009,02,15,06,22,2.30
2009,02,15,06,23,2.30
2009,02,15,06,24,2.30
2009,02,15,06,25,2.40
2009,02,15,06,26,2.40
2009,02,15,06,27,2.40
2009,02,15,06,28,2.40
2009,02,15,06,29,2.40
2009,02,15,06,30,2.40
2009,02,15,06,31,2.40
2009,02,15,06,32,2.40
2009,02,15,06,33,2.40
2009,02,15,06,34,2.50
2009,02,15,06,35,2.50
2009,02,15,06,36,2.50
2009,02,15,06,37,2.50
2009,02,15,06,38,2.50
2009,02,15,06,39,2.50
2009,02,15,06,40,2.50
2009,02,15,06,41,2.50
2009,02,15,06,42,2.50
2009,02,15,06,43,2.50
2009,02,15,06,44,2.50
2009,02,15,06,45,2.50
2009,02,15,06,46,2.50
2009,02,15,06,47,2.50
2009,02,15,06,48,2.50
2009,02,15,06,49,2.50
2009,02,15,06,50,2.50
2009,02,15,06,51,2.50
2009,02,15,06,52,2.50
2009,02,15,06,53,2.50
2009,02,15,06,54,2.50
2009,02,15,06,55,2.50
2009,02,15,06,56,2.50
2009,02,15,06,57,2.40
2009,02,15,06,58,2.40
2009,02,15,06,59,2.50
2009,02,15,07,00,2.50
2009,02,15,07,01,2.50
2009,02,15,07,02,2.50
2009,02,15,07,03,2.50
2009,02,15,07,04,2.60
2009,02,15,07,05,2.60
2009,02,15,07,06,2.60
2009,02,15,07,07,2.60
2009,02,15,07,08,2.60
2009,02,15,07,09,2.60
2009,02,15,07,10,2.60
2009,02,15,07,11,2.60
2009,02,15,07,12,2.60
2009,02,15,07,13,2.70
2009,02,15,07,14,2.70
2009,02,15,07,15,2.60
2009,02,15,07,16,2.60
2009,02,15,07,17,2.60
2009,02,15,07,18,2.60
2009,02,15,07,19,2.60
2009,02,15,07,20,2.60
2009,02,15,07,21,2.60
2009,02,15,07,22,2.60
2009,02,15,07,23,2.60
2009,02,15,07,24,2.60
2009,02,15,07,25,2.50
2009,02,15,07,26,2.60
2009,02,15,07,27,2.50
2009,02,15,07,28,2.50
2009,02,15,07,29,2.50
2009,02,15,07,30,2.50
2009,02,15,07,31,2.50
2009,02,15,07,32,2.50
2009,02,15,07,33,2.50
2009,02,15,07,34,2.50
2009,02,15,07,35,2.60
2009,02,15,07,36,2.60
2009,02,15,07,37,2.60
2009,02,15,07,38,2.60
2009,02,15,07,39,2.60
2009,02,15,07,40,2.60
2009,02,15,07,41,2.60
2009,02,15,07,42,2.60
2009,02,15,07,43,2.60
2009,02,15,07,44,2.60
2009,02,15,07,45,2.60
2009,02,15,07,46,2.60
2009,02,15,07,47,2.60
2009,02,15,07,48,2.60
2009,02,15,07,49,2.60
2009,02,15,07,50,2.60
2009,02,15,07,51,2.60
2009,02,15,07,52,2.60
2009,02,15,07,53,2.60
2009,02,15,07,54,2.60
2009,02,15,07,55,2.60
2009,02,15,07,56,2.60
2009,02,15,07,57,2.60
2009,02,15,07,58,2.60
2009,02,15,07,59,2.70
2009,02,15,08,00,2.70
2009,02,15,08,01,2.70
2009,02,15,08,02,2.80
2009,02,15,08,03,2.80
2009,02,15,08,04,2.90
2009,02,15,08,05,2.90
2009,02,15,08,06,3.00
2009,02,15,08,07,3.00
2009,02,15,08,08,3.00
2009,02,15,08,09,3.00
2009,02,15,08,10,3.10
2009,02,15,08,11,3.10
2009,02,15,08,12,3.10
2009,02,15,08,13,3.10
2009,02,15,08,14,3.20
2009,02,15,08,15,3.20
2009,02,15,08,16,3.20
2009,02,15,08,17,3.30
2009,02,15,08,18,3.30
2009,02,15,08,19,3.30
2009,02,15,08,20,3.30
2009,02,15,08,21,3.30
2009,02,15,08,22,3.40
2009,02,15,08,23,3.40
2009,02,15,08,24,3.40
2009,02,15,08,25,3.40
2009,02,15,08,26,3.50
2009,02,15,08,27,3.50
2009,02,15,08,28,3.50
2009,02,15,08,29,3.50
2009,02,15,08,30,3.60
2009,02,15,08,31,3.60
2009,02,15,08,32,3.60
2009,02,15,08,33,3.60
2009,02,15,08,34,3.60
2009,02,15,08,35,3.70
2009,02,15,08,36,3.70
2009,02,15,08,37,3.80
2009,02,15,08,38,3.80
2009,02,15,08,39,3.80
2009,02,15,08,40,3.80
2009,02,15,08,41,3.90
2009,02,15,08,42,3.90
2009,02,15,08,43,3.90
2009,02,15,08,44,4.00
2009,02,15,08,45,4.00
2009,02,15,08,46,4.10
2009,02,15,08,47,4.10
2009,02,15,08,48,4.20
2009,02,15,08,49,4.20
2009,02,15,08,50,4.20
2009,02,15,08,51,4.30
2009,02,15,08,52,4.30
2009,02,15,08,53,4.30
2009,02,15,08,54,4.40
2009,02,15,08,55,4.40
2009,02,15,08,56,4.40
2009,02,15,08,57,4.40
2009,02,15,08,58,4.50
2009,02,15,08,59,4.50
2009,02,15,09,00,4.50
2009,02,15,09,01,4.60
2009,02,15,09,02,4.60
2009,02,15,09,03,4.60
2009,02,15,09,04,4.60
2009,02,15,09,05,4.60
2009,02,15,09,06,4.60
2009,02,15,09,07,4.70
2009,02,15,09,08,4.70
2009,02,15,09,09,4.80
2009,02,15,09,10,4.80
2009,02,15,09,11,4.90
2009,02,15,09,12,4.90
2009,02,15,09,13,4.90
2009,02,15,09,14,5.00
2009,02,15,09,15,5.10
2009,02,15,09,16,5.10
2009,02,15,09,17,5.10
2009,02,15,09,18,5.10
2009,02,15,09,19,5.20
2009,02,15,09,20,5.30
2009,02,15,09,21,5.30
2009,02,15,09,22,5.40
2009,02,15,09,23,5.40
2009,02,15,09,24,5.50
2009,02,15,09,25,5.50
2009,02,15,09,26,5.60
2009,02,15,09,27,5.70
2009,02,15,09,28,5.80
2009,02,15,09,29,5.80
2009,02,15,09,30,5.90
2009,02,15,09,31,5.90
2009,02,15,09,32,5.90
2009,02,15,09,33,5.90
2009,02,15,09,34,5.90
2009,02,15,09,35,5.90
2009,02,15,09,36,5.90
2009,02,15,09,37,6.00
2009,02,15,09,38,6.00
2009,02,15,09,39,6.00
2009,02,15,09,40,6.00
2009,02,15,09,41,6.10
2009,02,15,09,42,6.10
2009,02,15,09,43,6.10
2009,02,15,09,44,6.20
2009,02,15,09,45,6.20
2009,02,15,09,46,6.20
2009,02,15,09,47,6.20
2009,02,15,09,48,6.20
2009,02,15,09,49,6.10
2009,02,15,09,50,6.10
2009,02,15,09,51,6.00
2009,02,15,09,52,5.90
2009,02,15,09,53,5.90
2009,02,15,09,54,5.80
2009,02,15,09,55,5.80
2009,02,15,09,56,5.70
2009,02,15,09,57,5.70
2009,02,15,09,58,5.60
2009,02,15,09,59,5.60
2009,02,15,10,00,5.60
2009,02,15,10,01,5.60
2009,02,15,10,02,5.60
2009,02,15,10,03,5.60
2009,02,15,10,04,5.60
2009,02,15,10,05,5.60
2009,02,15,10,06,5.60
2009,02,15,10,07,5.60
2009,02,15,10,08,5.60
2009,02,15,10,09,5.60
2009,02,15,10,10,5.50
2009,02,15,10,11,5.50
2009,02,15,10,12,5.50
2009,02,15,10,13,5.50
2009,02,15,10,14,5.60
2009,02,15,10,15,5.60
2009,02,15,10,16,5.70
2009,02,15,10,17,5.70
2009,02,15,10,18,5.80
2009,02,15,10,19,5.80
2009,02,15,10,20,5.80
2009,02,15,10,21,5.90
2009,02,15,10,22,5.90
2009,02,15,10,23,5.90
2009,02,15,10,24,6.00
2009,02,15,10,25,6.00
2009,02,15,10,26,5.90
2009,02,15,10,27,5.90
2009,02,15,10,28,6.00
2009,02,15,10,29,6.00
2009,02,15,10,30,6.00
2009,02,15,10,31,6.00
2009,02,15,10,32,6.00
2009,02,15,10,33,6.00
2009,02,15,10,34,6.10
2009,02,15,10,35,6.10
2009,02,15,10,36,6.10
2009,02,15,10,37,6.20
2009,02,15,10,38,6.30
2009,02,15,10,39,6.30
2009,02,15,10,40,6.30
2009,02,15,10,41,6.30
2009,02,15,10,42,6.40
2009,02,15,10,43,6.40
2009,02,15,10,44,6.30
2009,02,15,10,45,6.30
2009,02,15,10,46,6.30
2009,02,15,10,47,6.20
2009,02,15,10,48,6.20
2009,02,15,10,49,6.20
2009,02,15,10,50,6.10
2009,02,15,10,51,6.10
2009,02,15,10,52,6.10
2009,02,15,10,53,6.10
2009,02,15,10,54,6.00
2009,02,15,10,55,6.00
2009,02,15,10,56,6.10
2009,02,15,10,57,6.10
2009,02,15,10,58,6.10
2009,02,15,10,59,6.20
2009,02,15,11,00,6.30
2009,02,15,11,01,6.30
2009,02,15,11,02,6.30
2009,02,15,11,03,6.40
2009,02,15,11,04,6.40
2009,02,15,11,05,6.40
2009,02,15,11,06,6.40
2009,02,15,11,07,6.40
2009,02,15,11,08,6.40
2009,02,15,11,09,6.40
2009,02,15,11,10,6.50
2009,02,15,11,11,6.50
2009,02,15,11,12,6.60
2009,02,15,11,13,6.60
2009,02,15,11,14,6.70
2009,02,15,11,15,6.80
2009,02,15,11,16,6.80
2009,02,15,11,17,6.80
2009,02,15,11,18,6.90
2009,02,15,11,19,6.90
2009,02,15,11,20,6.90
2009,02,15,11,21,6.90
2009,02,15,11,22,6.80
2009,02,15,11,23,6.80
2009,02,15,11,24,6.80
2009,02,15,11,25,6.80
2009,02,15,11,26,6.80
2009,02,15,11,27,6.70
2009,02,15,11,28,6.80
2009,02,15,11,29,6.80
2009,02,15,11,30,6.80
2009,02,15,11,31,6.80
2009,02,15,13,07,7.20
2009,02,15,13,08,7.20
2009,02,15,13,09,7.20
2009,02,15,13,10,7.30
2009,02,15,13,11,7.30
2009,02,15,13,12,7.30
2009,02,15,13,13,7.40
2009,02,15,13,14,7.30
2009,02,15,13,15,7.30
2009,02,15,13,16,7.20
2009,02,15,13,17,7.20
2009,02,15,13,18,7.20
2009,02,15,13,19,7.20
2009,02,15,13,20,7.10
2009,02,15,13,21,7.00
2009,02,15,13,22,7.00
2009,02,15,13,23,7.00
2009,02,15,13,24,7.00
2009,02,15,13,25,7.10
2009,02,15,13,26,7.10
2009,02,15,13,27,7.10
2009,02,15,13,28,7.10
2009,02,15,13,29,7.10
2009,02,15,13,30,7.10
2009,02,15,13,31,7.10
2009,02,15,13,32,7.20
2009,02,15,13,33,7.20
2009,02,15,13,34,7.20
2009,02,15,13,35,7.20
2009,02,15,13,36,7.20
2009,02,15,13,37,7.20
2009,02,15,13,38,7.20
2009,02,15,13,39,7.20
2009,02,15,13,40,7.10
2009,02,15,13,41,7.10
2009,02,15,13,42,7.10
2009,02,15,13,43,7.10
2009,02,15,13,44,7.10
2009,02,15,13,45,7.10
2009,02,15,13,46,7.00
2009,02,15,13,47,7.00
2009,02,15,13,48,7.00
2009,02,15,13,49,7.00
2009,02,15,13,50,7.10
2009,02,15,13,51,7.10
2009,02,15,13,52,7.00
2009,02,15,13,53,7.00
2009,02,15,13,54,7.00
2009,02,15,13,55,7.00
2009,02,15,13,56,6.90
2009,02,15,13,57,7.00
2009,02,15,13,58,7.00
2009,02,15,13,59,7.00
2009,02,15,14,00,7.00
2009,02,15,14,01,6.90
2009,02,15,14,02,7.00
2009,02,15,14,03,7.00
2009,02,15,14,04,6.90
2009,02,15,14,05,7.00
2009,02,15,14,06,7.00
2009,02,15,14,07,7.10
2009,02,15,14,08,7.10
2009,02,15,14,09,7.00
2009,02,15,14,10,7.00
2009,02,15,14,11,6.90
2009,02,15,14,12,6.90
2009,02,15,14,13,7.00
2009,02,15,14,14,7.00
2009,02,15,14,15,7.10
2009,02,15,14,16,7.20
2009,02,15,14,17,7.20
2009,02,15,14,18,7.20
2009,02,15,14,19,7.20
2009,02,15,14,20,7.20
2009,02,15,14,21,7.10
2009,02,15,14,22,7.10
2009,02,15,14,23,7.10
2009,02,15,14,24,7.10
2009,02,15,14,25,7.20
2009,02,15,14,26,7.20
2009,02,15,14,27,7.20
2009,02,15,14,28,7.20
2009,02,15,14,29,7.30
2009,02,15,14,30,7.30
2009,02,15,14,31,7.20
2009,02,15,14,32,7.20
2009,02,15,14,33,7.20
2009,02,15,14,34,7.20
2009,02,15,14,35,7.30
2009,02,15,14,36,7.30
2009,02,15,14,37,7.30
2009,02,15,14,38,7.20
2009,02,15,14,39,7.20
2009,02,15,14,40,7.30
2009,02,15,14,41,7.30
2009,02,15,14,42,7.30
2009,02,15,14,43,7.30
2009,02,15,14,44,7.30
2009,02,15,14,45,7.30
2009,02,15,14,46,7.30
2009,02,15,14,47,7.40
2009,02,15,14,48,7.40
2009,02,15,14,49,7.50
2009,02,15,14,50,7.50
2009,02,15,14,51,7.60
2009,02,15,14,52,7.60
2009,02,15,14,53,7.60
2009,02,15,14,54,7.50
2009,02,15,14,55,7.40
2009,02,15,14,56,7.40
2009,02,15,14,57,7.20
2009,02,15,14,58,7.20
2009,02,15,14,59,7.20
2009,02,15,15,00,7.20
2009,02,15,15,01,7.20
2009,02,15,15,02,7.30
2009,02,15,15,03,7.40
2009,02,15,15,04,7.50
2009,02,15,15,05,7.50
2009,02,15,15,06,7.70
2009,02,15,15,07,7.70
2009,02,15,15,08,7.70
2009,02,15,15,09,7.60
2009,02,15,15,10,7.60
2009,02,15,15,11,7.60
2009,02,15,15,12,7.70
2009,02,15,15,13,7.60
2009,02,15,15,14,7.60
2009,02,15,15,15,7.70
2009,02,15,15,16,7.70
2009,02,15,15,17,7.60
2009,02,15,15,18,7.50
2009,02,15,15,19,7.50
2009,02,15,15,20,7.40
2009,02,15,15,21,7.30
2009,02,15,15,22,7.30
2009,02,15,15,23,7.30
2009,02,15,15,24,7.40
2009,02,15,15,25,7.40
2009,02,15,15,26,7.40
2009,02,15,15,27,7.40
2009,02,15,15,28,7.40
2009,02,15,15,29,7.40
2009,02,15,15,30,7.40
2009,02,15,15,31,7.40
2009,02,15,15,32,7.30
2009,02,15,15,33,7.40
2009,02,15,15,34,7.40
2009,02,15,15,35,7.40
2009,02,15,15,36,7.40
2009,02,15,15,37,7.40
2009,02,15,15,38,7.40
2009,02,15,15,39,7.40
2009,02,15,15,40,7.40
2009,02,15,15,41,7.30
2009,02,15,15,42,7.30
2009,02,15,15,43,7.30
2009,02,15,15,44,7.30
2009,02,15,15,45,7.30
2009,02,15,15,46,7.20
2009,02,15,15,47,7.20
2009,02,15,15,48,7.10
2009,02,15,15,49,7.10
2009,02,15,15,50,7.00
2009,02,15,15,51,6.90
2009,02,15,15,52,6.90
2009,02,15,15,53,6.90
2009,02,15,15,54,6.80
2009,02,15,15,55,6.80
2009,02,15,15,56,6.70
2009,02,15,15,57,6.70
2009,02,15,15,58,6.70
2009,02,15,15,59,6.60
2009,02,15,16,00,6.60
2009,02,15,16,01,6.50
2009,02,15,16,02,6.40
2009,02,15,16,03,6.30
2009,02,15,16,04,6.20
2009,02,15,16,05,6.20
2009,02,15,16,06,6.10
2009,02,15,16,07,6.10
2009,02,15,16,08,6.00
2009,02,15,16,09,6.00
2009,02,15,16,10,6.00
2009,02,15,16,11,5.90
2009,02,15,16,12,5.90
2009,02,15,16,13,5.90
2009,02,15,16,14,5.90
2009,02,15,16,15,5.80
2009,02,15,16,16,5.80
2009,02,15,16,17,5.80
2009,02,15,16,18,5.80
2009,02,15,16,19,5.80
2009,02,15,16,20,5.80
2009,02,15,16,21,5.80
2009,02,15,16,22,5.80
2009,02,15,16,23,5.70
2009,02,15,16,24,5.70
2009,02,15,16,25,5.70
2009,02,15,16,26,5.70
2009,02,15,16,27,5.70
2009,02,15,16,28,5.60
2009,02,15,16,29,5.60
2009,02,15,16,30,5.60
2009,02,15,16,31,5.60
2009,02,15,16,32,5.50
2009,02,15,16,33,5.50
2009,02,15,16,34,5.50
2009,02,15,16,35,5.40
2009,02,15,16,36,5.40
2009,02,15,16,37,5.40
2009,02,15,16,38,5.40
2009,02,15,16,39,5.40
2009,02,15,16,40,5.40
2009,02,15,16,41,5.30
2009,02,15,16,42,5.30
2009,02,15,16,43,5.30
2009,02,15,16,44,5.30
2009,02,15,16,45,5.30
2009,02,15,16,46,5.30
2009,02,15,16,47,5.30
2009,02,15,16,48,5.30
2009,02,15,16,49,5.20
2009,02,15,16,50,5.20
2009,02,15,16,51,5.20
2009,02,15,16,52,5.20
2009,02,15,16,53,5.20
2009,02,15,16,54,5.20
2009,02,15,16,55,5.10
2009,02,15,16,56,5.10
2009,02,15,16,57,5.10
2009,02,15,16,58,5.10
2009,02,15,16,59,5.00
2009,02,15,17,00,5.00
2009,02,15,17,01,5.00
2009,02,15,17,02,4.90
2009,02,15,17,03,4.90
2009,02,15,17,04,4.90
2009,02,15,17,05,4.90
2009,02,15,17,06,4.90
2009,02,15,17,07,4.80
2009,02,15,17,08,4.80
2009,02,15,17,09,4.80
2009,02,15,17,10,4.80
2009,02,15,17,11,4.80
2009,02,15,17,12,4.80
2009,02,15,17,13,4.80
2009,02,15,17,14,4.70
2009,02,15,17,15,4.70
2009,02,15,17,16,4.70
2009,02,15,17,17,4.70
2009,02,15,17,18,4.70
2009,02,15,17,19,4.70
2009,02,15,17,20,4.70
2009,02,15,17,21,4.70
2009,02,15,17,22,4.70
2009,02,15,17,23,4.70
2009,02,15,17,24,4.70
2009,02,15,17,25,4.70
2009,02,15,17,26,4.70
2009,02,15,17,27,4.70
2009,02,15,17,28,4.70
2009,02,15,17,29,4.60
2009,02,15,17,30,4.60
2009,02,15,17,31,4.60
2009,02,15,17,32,4.60
2009,02,15,17,33,4.60
2009,02,15,17,34,4.50
2009,02,15,17,35,4.50
2009,02,15,17,36,4.50
2009,02,15,17,37,4.40
2009,02,15,17,38,4.40
2009,02,15,17,39,4.40
2009,02,15,17,40,4.40
2009,02,15,17,41,4.40
2009,02,15,17,42,4.40
2009,02,15,17,43,4.40
2009,02,15,17,44,4.40
2009,02,15,17,45,4.40
2009,02,15,17,46,4.40
2009,02,15,17,47,4.40
2009,02,15,17,48,4.40
2009,02,15,17,49,4.40
2009,02,15,17,50,4.40
2009,02,15,17,51,4.40
2009,02,15,17,52,4.40
2009,02,15,17,53,4.40
2009,02,15,17,54,4.40
2009,02,15,17,55,4.40
2009,02,15,17,56,4.40
2009,02,15,17,57,4.30
2009,02,15,17,58,4.30
2009,02,15,17,59,4.30
2009,02,15,18,00,4.30
2009,02,15,18,01,4.30
2009,02,15,18,02,4.30
2009,02,15,18,03,4.30
2009,02,15,18,04,4.30
2009,02,15,18,05,4.30
2009,02,15,18,06,4.30
2009,02,15,18,07,4.30
2009,02,15,18,08,4.30
2009,02,15,18,09,4.30
2009,02,15,18,10,4.30
2009,02,15,18,11,4.30
2009,02,15,18,12,4.30
2009,02,15,18,13,4.30
2009,02,15,18,14,4.30
2009,02,15,18,15,4.20
2009,02,15,18,16,4.20
2009,02,15,18,17,4.20
2009,02,15,18,18,4.20
2009,02,15,18,19,4.20
2009,02,15,18,20,4.30
2009,02,15,18,21,4.30
2009,02,15,18,22,4.30
2009,02,15,18,23,4.30
2009,02,15,18,24,4.30
2009,02,15,18,25,4.30
2009,02,15,18,26,4.30
2009,02,15,18,27,4.30
2009,02,15,18,28,4.30
2009,02,15,18,29,4.30
2009,02,15,18,30,4.20
2009,02,15,18,31,4.20
2009,02,15,18,32,4.20
2009,02,15,18,33,4.20
2009,02,15,18,34,4.20
2009,02,15,18,35,4.20
2009,02,15,18,36,4.20
2009,02,15,18,37,4.20
2009,02,15,18,38,4.20
2009,02,15,18,39,4.20
2009,02,15,18,40,4.20
2009,02,15,18,41,4.20
2009,02,15,18,42,4.20
2009,02,15,18,43,4.20
2009,02,15,18,44,4.20
2009,02,15,18,45,4.30
2009,02,15,18,46,4.30
2009,02,15,18,47,4.30
2009,02,15,18,48,4.30
2009,02,15,18,49,4.30
2009,02,15,18,50,4.30
2009,02,15,18,51,4.20
2009,02,15,18,52,4.20
2009,02,15,18,53,4.20
2009,02,15,18,54,4.20
2009,02,15,18,55,4.20
2009,02,15,18,56,4.20
2009,02,15,18,57,4.20
2009,02,15,18,58,4.20
2009,02,15,18,59,4.20
2009,02,15,19,00,4.20
2009,02,15,19,01,4.20
2009,02,15,19,02,4.20
2009,02,15,19,03,4.20
2009,02,15,19,04,4.30
2009,02,15,19,05,4.20
2009,02,15,19,06,4.20
2009,02,15,19,07,4.20
2009,02,15,19,08,4.20
2009,02,15,19,09,4.20
2009,02,15,19,10,4.20
2009,02,15,19,11,4.20
2009,02,15,19,12,4.20
2009,02,15,19,13,4.20
2009,02,15,19,14,4.20
2009,02,15,19,15,4.20
2009,02,15,19,16,4.20
2009,02,15,19,17,4.20
2009,02,15,19,18,4.20
2009,02,15,19,19,4.20
2009,02,15,19,20,4.30
2009,02,15,19,21,4.20
2009,02,15,19,22,4.20
2009,02,15,19,23,4.20
2009,02,15,19,24,4.20
2009,02,15,19,25,4.20
2009,02,15,19,26,4.20
2009,02,15,19,27,4.20
2009,02,15,19,28,4.20
2009,02,15,19,29,4.20
2009,02,15,19,30,4.20
2009,02,15,19,31,4.20
2009,02,15,19,32,4.20
2009,02,15,19,33,4.10
2009,02,15,19,34,4.10
2009,02,15,19,35,4.10
2009,02,15,19,36,4.10
2009,02,15,19,37,4.10
2009,02,15,19,38,4.10
2009,02,15,19,39,4.10
2009,02,15,19,40,4.10
2009,02,15,19,41,4.10